Meteo pe oră la Dabrowica

Astăzi, 11 Aprilie, Duminică

Timp Temperatura Precipitaţii Vânt Presiune Umiditate
00:00 +8°C° 0 mm 2 m/s 744 mmHg 78%
01:00 +8°C° 0 mm 3 m/s 743 mmHg 76%
02:00 +7°C° 0 mm 3 m/s 743 mmHg 76%
03:00 +7°C° 0 mm 3 m/s 743 mmHg 77%
04:00 +7°C° 0 mm 3 m/s 743 mmHg 77%
05:00 +8°C° 0 mm 3 m/s 743 mmHg 74%
06:00 +8°C° 0 mm 3 m/s 743 mmHg 71%
07:00 +9°C° 0 mm 3 m/s 743 mmHg 68%
08:00 +10°C° 0 mm 5 m/s 743 mmHg 62%
09:00 +13°C° 0 mm 6 m/s 743 mmHg 56%
10:00 +13°C° 0 mm 8 m/s 743 mmHg 49%
11:00 +15°C° 0 mm 8 m/s 743 mmHg 49%
12:00 +15°C° 0 mm 8 m/s 743 mmHg 48%
13:00 +15°C° 0 mm 8 m/s 743 mmHg 47%
14:00 +14°C° 0 mm 7 m/s 743 mmHg 50%
15:00 +14°C° 0 mm 7 m/s 742 mmHg 53%
16:00 +13°C° 0 mm 6 m/s 742 mmHg 57%
17:00 +13°C° 0 mm 6 m/s 742 mmHg 59%
18:00 +11°C° 0 mm 6 m/s 742 mmHg 61%
19:00 +11°C° 0 mm 6 m/s 743 mmHg 62%
20:00 +10°C° 0 mm 5 m/s 742 mmHg 63%
21:00 +10°C° 0 mm 5 m/s 742 mmHg 64%
22:00 +11°C° 0 mm 4 m/s 742 mmHg 65%
23:00 +10°C° 0 mm 4 m/s 742 mmHg 67%

Mâine, 12 Aprilie, Luni

Timp Temperatura Precipitaţii Vânt Presiune Umiditate
00:00 +10°C° 0 mm 4 m/s 742 mmHg 69%
01:00 +10°C° 0 mm 3 m/s 742 mmHg 72%
02:00 +9°C° 0 mm 3 m/s 742 mmHg 74%
03:00 +9°C° 0 mm 3 m/s 742 mmHg 77%
04:00 +8°C° 0 mm 3 m/s 742 mmHg 79%
05:00 +9°C° 0 mm 3 m/s 742 mmHg 77%
06:00 +10°C° 0 mm 3 m/s 742 mmHg 74%
07:00 +10°C° 0 mm 3 m/s 742 mmHg 72%
08:00 +11°C° 0 mm 3 m/s 742 mmHg 70%
09:00 +12°C° 0 mm 3 m/s 743 mmHg 69%
10:00 +12°C° 0 mm 4 m/s 743 mmHg 68%
11:00 +12°C° 0 mm 4 m/s 743 mmHg 72%
12:00 +11°C° 0 mm 4 m/s 743 mmHg 76%
13:00 +10°C° 0 mm 4 m/s 744 mmHg 79%
14:00 +8°C° 0 mm 5 m/s 744 mmHg 80%
15:00 +8°C° 0 mm 5 m/s 744 mmHg 81%
16:00 +7°C° 0 mm 5 m/s 744 mmHg 82%
17:00 +6°C° 0.1 mm 5 m/s 745 mmHg 83%
18:00 +5°C° 0.1 mm 5 m/s 746 mmHg 84%
19:00 +3°C° 0.1 mm 5 m/s 746 mmHg 86%
20:00 +3°C° 0.1 mm 5 m/s 746 mmHg 87%
21:00 +2°C° 0.1 mm 5 m/s 746 mmHg 89%
22:00 +1°C° 0.1 mm 5 m/s 747 mmHg 90%
23:00 +1°C° 0.1 mm 5 m/s 747 mmHg 92%

Poimâine, 13 Aprilie, Marţi

Timp Temperatura Precipitaţii Vânt Presiune Umiditate
00:00 0°C° 0.1 mm 5 m/s 747 mmHg 93%
01:00 -1°C° 0.1 mm 5 m/s 747 mmHg 94%
02:00 -1°C° 1 mm 5 m/s 747 mmHg 95%
03:00 -1°C° 1 mm 5 m/s 747 mmHg 95%
04:00 -1°C° 1 mm 5 m/s 747 mmHg 96%
05:00 -1°C° 1.3 mm 5 m/s 748 mmHg 96%
06:00 -1°C° 1.3 mm 5 m/s 748 mmHg 97%
07:00 -1°C° 1.3 mm 5 m/s 748 mmHg 97%
08:00 -1°C° 0.6 mm 5 m/s 749 mmHg 95%
09:00 -1°C° 0.6 mm 5 m/s 749 mmHg 93%
10:00 -1°C° 0.6 mm 6 m/s 749 mmHg 91%
11:00 +1°C° 0.1 mm 5 m/s 749 mmHg 85%
12:00 +1°C° 0.1 mm 5 m/s 749 mmHg 79%
13:00 +2°C° 0.1 mm 5 m/s 749 mmHg 73%
14:00 +3°C° 0 mm 5 m/s 749 mmHg 71%
15:00 +3°C° 0 mm 5 m/s 748 mmHg 69%
16:00 +3°C° 0 mm 5 m/s 748 mmHg 67%
17:00 +4°C° 0 mm 4 m/s 748 mmHg 69%
18:00 +3°C° 0 mm 3 m/s 748 mmHg 72%
19:00 +3°C° 0 mm 2 m/s 748 mmHg 75%
20:00 +3°C° 0 mm 2 m/s 748 mmHg 76%
21:00 +3°C° 0 mm 2 m/s 748 mmHg 77%
22:00 +3°C° 0 mm 2 m/s 748 mmHg 78%
23:00 +3°C° 0.1 mm 2 m/s 748 mmHg 79%

14 Aprilie, Miercuri

Timp Temperatura Precipitaţii Vânt Presiune Umiditate
00:00 +2°C° 0.1 mm 2 m/s 748 mmHg 81%
01:00 +2°C° 0.1 mm 2 m/s 748 mmHg 82%
02:00 +1°C° 0.4 mm 3 m/s 748 mmHg 85%
03:00 0°C° 0.4 mm 3 m/s 748 mmHg 89%
04:00 0°C° 0.4 mm 3 m/s 747 mmHg 92%
05:00 -1°C° 0.2 mm 4 m/s 747 mmHg 91%
06:00 0°C° 0.2 mm 4 m/s 748 mmHg 89%
07:00 0°C° 0.2 mm 5 m/s 748 mmHg 88%
08:00 0°C° 0.2 mm 5 m/s 747 mmHg 85%
09:00 +1°C° 0.2 mm 6 m/s 747 mmHg 82%
10:00 +1°C° 0.2 mm 6 m/s 747 mmHg 80%
11:00 +2°C° 0.1 mm 6 m/s 747 mmHg 77%
12:00 +2°C° 0.1 mm 6 m/s 747 mmHg 75%
13:00 +2°C° 0.1 mm 6 m/s 746 mmHg 73%
14:00 +2°C° 0.6 mm 6 m/s 746 mmHg 79%
15:00 +1°C° 0.6 mm 6 m/s 746 mmHg 85%
16:00 -1°C° 0.6 mm 6 m/s 746 mmHg 91%
17:00 -1°C° 1 mm 6 m/s 746 mmHg 93%
18:00 -2°C° 1 mm 7 m/s 746 mmHg 95%
19:00 -2°C° 1 mm 7 m/s 746 mmHg 97%
20:00 -2°C° 1.1 mm 7 m/s 746 mmHg 97%
21:00 -2°C° 1.1 mm 7 m/s 745 mmHg 97%
22:00 -3°C° 1.1 mm 7 m/s 745 mmHg 97%
23:00 -3°C° 1.6 mm 7 m/s 745 mmHg 97%

15 Aprilie, Joi

Timp Temperatura Precipitaţii Vânt Presiune Umiditate
00:00 -3°C° 1.6 mm 7 m/s 744 mmHg 98%
01:00 -4°C° 1.6 mm 8 m/s 744 mmHg 98%
02:00 -3°C° 1.8 mm 7 m/s 744 mmHg 98%
03:00 -3°C° 1.8 mm 7 m/s 744 mmHg 98%
04:00 -3°C° 1.8 mm 6 m/s 744 mmHg 98%
05:00 -3°C° 1.2 mm 6 m/s 744 mmHg 98%
06:00 -2°C° 1.2 mm 5 m/s 744 mmHg 99%
07:00 -2°C° 1.2 mm 5 m/s 744 mmHg 99%
08:00 -2°C° 0.4 mm 5 m/s 744 mmHg 99%
09:00 -2°C° 0.4 mm 4 m/s 744 mmHg 99%
10:00 -2°C° 0.4 mm 4 m/s 745 mmHg 99%
11:00 -2°C° 0.5 mm 4 m/s 745 mmHg 99%
12:00 -1°C° 0.5 mm 3 m/s 745 mmHg 99%
13:00 -1°C° 0.5 mm 3 m/s 746 mmHg 99%
14:00 -1°C° 0.5 mm 3 m/s 746 mmHg 99%
15:00 -1°C° 0.5 mm 3 m/s 746 mmHg 99%
16:00 -1°C° 0.5 mm 3 m/s 746 mmHg 99%
17:00 -1°C° 0.5 mm 3 m/s 747 mmHg 99%
18:00 -1°C° 0.5 mm 3 m/s 747 mmHg 99%
19:00 0°C° 0.5 mm 3 m/s 747 mmHg 99%
20:00 0°C° 0.2 mm 3 m/s 748 mmHg 99%
21:00 0°C° 0.2 mm 3 m/s 748 mmHg 99%
22:00 0°C° 0.2 mm 3 m/s 748 mmHg 99%
23:00 0°C° 0.2 mm 3 m/s 748 mmHg 99%

16 Aprilie, Vineri

Timp Temperatura Precipitaţii Vânt Presiune Umiditate
00:00 0°C° 0.2 mm 3 m/s 748 mmHg 99%
01:00 0°C° 0.2 mm 3 m/s 749 mmHg 99%
02:00 0°C° 0.2 mm 3 m/s 749 mmHg 99%
03:00 0°C° 0.2 mm 3 m/s 749 mmHg 99%
04:00 0°C° 0.2 mm 3 m/s 750 mmHg 100%
05:00 0°C° 0 mm 3 m/s 750 mmHg 99%
06:00 0°C° 0 mm 3 m/s 750 mmHg 99%
07:00 0°C° 0 mm 3 m/s 751 mmHg 99%
08:00 +1°C° 0 mm 3 m/s 751 mmHg 99%
09:00 +2°C° 0 mm 3 m/s 752 mmHg 99%
10:00 +1°C° 0 mm 4 m/s 752 mmHg 99%
11:00 +4°C° 0 mm 4 m/s 752 mmHg 92%
12:00 +5°C° 0 mm 4 m/s 752 mmHg 86%
13:00 +6°C° 0 mm 4 m/s 752 mmHg 80%
14:00 +7°C° 0 mm 4 m/s 752 mmHg 79%
15:00 +8°C° 0 mm 3 m/s 752 mmHg 79%
16:00 +8°C° 0 mm 3 m/s 752 mmHg 78%
17:00 +7°C° 0 mm 3 m/s 752 mmHg 82%
18:00 +6°C° 0 mm 2 m/s 753 mmHg 87%
19:00 +4°C° 0 mm 2 m/s 753 mmHg 91%
20:00 +4°C° 0 mm 2 m/s 753 mmHg 90%
21:00 +3°C° 0 mm 2 m/s 753 mmHg 89%
22:00 +2°C° 0 mm 3 m/s 753 mmHg 89%
23:00 +1°C° 0 mm 3 m/s 753 mmHg 89%
Arată mai mult

Formular de consimțământ

Meteoprog și furnizorii noștri de servicii pot stoca și accesa date personale, precum cookies, identificatori de dispozitiv sau alte tehnologii similare pe dispozitivul dumneavoastră și procesa astfel de date pentru a personaliza conținutul și reclamele, dar și pentru a oferi caracteristici de social media și pentru a analiza traficul.

  • Stocarea și/sau accesarea informațiilor pe dispozitivul dumneavoastră

    Cookies, identificatori de dispozitiv sau alte informații pot fi stocate sau accesate pe dispozitiv în scopurile indicate mai sus.

  • Reclame și conținut personalizat, evaluarea reclamelor și a conținutului, informații despre audiențe și dezvoltarea produselor

    Reclamele și conținutul pot fi personalizate pe baza unui profil. Pot fi adăugate date suplimentare pentru a personaliza mai bine reclamele și conținutul. Performanța reclamelor și conținutului poate fi măsurată. Pot fi obținute informații despre utilizatorii care au văzut reclamele și conținutul. Aceste date pot fi utilizate pentru a dezvolta sau îmbunătăți experiența utilizatorilor, sistemele și software-ul.

Dând clic pe ‘Sunt de acord’, permiteți utilizarea cookie-urilor menționate, a identificatorilor de dispozitiv, balizelor web sau altor tehnologii similare. Setările pot fi modificate din browser-ul dispozitivului dumneavoastră.

În anumite scopuri, interesele legitime pot prima asupra consimțământului. Puteți citi mai multe informații în acest sens în Politica privind Confidențialitatea Datelor și Cookie.